Location: ???????
(38.3360°N, 23.6977°E)
Time: 05:50:05
(UTC+00:00)

OAO 2 Rocket - Pass Details

Date: 17 November 2025
Orbit: 668 x 734 km, 35.0° (Epoch: 09 December)

Event Time Altitude Azimuth Distance (km) Brightness Sun altitude
Rises 15:54:43 0° 263° (W) 3,035 8.7 -8.8°
Reaches altitude 10° 15:57:07 10° 259° (W) 2,130 7.5 -9.3°
Maximum altitude 16:02:02 60° 180° (S) 794 3.7 -10.2°
Enters shadow 16:06:48 11° 102° (ESE) 2,085 5.2 -11.1°
